Location: Sternwarte auf dem Internationalen Platz Vogelsang IP
(50.5721°N, 6.4398°E)
Time: 18:43:20
(UTC+01:00)

A-11 Canister half - Pass Details

Date: 16 December 2025
Orbit: 1511 x 1688 km, 47.2° (Epoch: 19 January)

Event Time Altitude Azimuth Distance (km) Brightness Sun altitude
Rises 18:14:07 0° 270° (W) 4,691 13.0 -15.4°
Reaches altitude 10° 18:17:08 10° 269° (W) 3,725 12.2 -15.9°
Maximum altitude 18:26:31 72° 187° (S) 1,652 9.2 -17.3°
Enters shadow 18:34:19 18° 108° (ESE) 3,258 10.2 -18.5°
Drops below altitude 10° 18:36:17 10° 106° (ESE) 3,861 - -18.8°
Sets 18:39:27 0° 105° (ESE) 4,869 - -19.3°
